EN

Hourly Weather Trostyanka

Today, 11 April, Sunday

Time Temperature Precipitation Wind Pressure Humidity
00:00 +5°C° 0 mm 3 mps 748 mmHg 76%
01:00 +5°C° 0 mm 3 mps 748 mmHg 77%
02:00 +5°C° 0 mm 3 mps 748 mmHg 79%
03:00 +4°C° 0 mm 3 mps 748 mmHg 79%
04:00 +4°C° 0 mm 3 mps 749 mmHg 79%
05:00 +4°C° 0 mm 3 mps 749 mmHg 79%
06:00 +5°C° 0 mm 3 mps 749 mmHg 73%
07:00 +7°C° 0 mm 4 mps 749 mmHg 67%
08:00 +8°C° 0 mm 4 mps 749 mmHg 61%
09:00 +9°C° 0 mm 5 mps 749 mmHg 56%
10:00 +12°C° 0 mm 5 mps 749 mmHg 51%
11:00 +14°C° 0 mm 6 mps 750 mmHg 46%
12:00 +14°C° 0 mm 6 mps 749 mmHg 43%
13:00 +15°C° 0 mm 6 mps 749 mmHg 41%
14:00 +15°C° 0 mm 6 mps 749 mmHg 38%
15:00 +15°C° 0 mm 6 mps 749 mmHg 40%
16:00 +15°C° 0 mm 6 mps 749 mmHg 41%
17:00 +15°C° 0 mm 5 mps 748 mmHg 43%
18:00 +13°C° 0 mm 5 mps 749 mmHg 48%
19:00 +11°C° 0 mm 4 mps 749 mmHg 53%
20:00 +8°C° 0 mm 4 mps 749 mmHg 58%
21:00 +8°C° 0 mm 4 mps 749 mmHg 57%
22:00 +8°C° 0 mm 5 mps 749 mmHg 57%
23:00 +7°C° 0 mm 5 mps 750 mmHg 56%

Tomorrow, 12 April, Monday

Time Temperature Precipitation Wind Pressure Humidity
00:00 +7°C° 0 mm 5 mps 749 mmHg 57%
01:00 +6°C° 0 mm 5 mps 749 mmHg 58%
02:00 +6°C° 0 mm 4 mps 749 mmHg 58%
03:00 +5°C° 0 mm 4 mps 749 mmHg 59%
04:00 +5°C° 0 mm 4 mps 749 mmHg 60%
05:00 +5°C° 0 mm 4 mps 749 mmHg 60%
06:00 +5°C° 0 mm 4 mps 749 mmHg 59%
07:00 +6°C° 0 mm 4 mps 749 mmHg 58%
08:00 +7°C° 0 mm 4 mps 749 mmHg 58%
09:00 +9°C° 0 mm 5 mps 748 mmHg 54%
10:00 +10°C° 0 mm 5 mps 748 mmHg 51%
11:00 +13°C° 0 mm 5 mps 748 mmHg 48%
12:00 +14°C° 0 mm 5 mps 748 mmHg 47%
13:00 +15°C° 0 mm 5 mps 748 mmHg 46%
14:00 +17°C° 0 mm 4 mps 747 mmHg 45%
15:00 +17°C° 0 mm 4 mps 747 mmHg 46%
16:00 +17°C° 0 mm 4 mps 747 mmHg 47%
17:00 +17°C° 0 mm 4 mps 746 mmHg 48%
18:00 +14°C° 0 mm 3 mps 746 mmHg 52%
19:00 +13°C° 0 mm 3 mps 746 mmHg 57%
20:00 +11°C° 0 mm 3 mps 747 mmHg 62%
21:00 +11°C° 0 mm 3 mps 747 mmHg 63%
22:00 +12°C° 0 mm 2 mps 747 mmHg 64%
23:00 +12°C° 0 mm 2 mps 747 mmHg 65%

Day after tomorrow, 13 April, Tuesday

Time Temperature Precipitation Wind Pressure Humidity
00:00 +10°C° 0 mm 2 mps 746 mmHg 68%
01:00 +11°C° 0 mm 1 mps 746 mmHg 70%
02:00 +11°C° 0 mm 1 mps 746 mmHg 73%
03:00 +11°C° 0 mm 1 mps 746 mmHg 73%
04:00 +11°C° 0 mm 1 mps 746 mmHg 73%
05:00 +10°C° 0 mm 1 mps 746 mmHg 73%
06:00 +11°C° 0 mm 1 mps 746 mmHg 74%
07:00 +10°C° 0 mm 2 mps 746 mmHg 74%
08:00 +12°C° 0 mm 2 mps 746 mmHg 75%
09:00 +12°C° 0 mm 2 mps 746 mmHg 72%
10:00 +13°C° 0 mm 2 mps 746 mmHg 69%
11:00 +14°C° 0 mm 2 mps 746 mmHg 66%
12:00 +15°C° 0 mm 2 mps 746 mmHg 63%
13:00 +14°C° 0 mm 3 mps 746 mmHg 60%
14:00 +16°C° 0 mm 3 mps 745 mmHg 58%
15:00 +15°C° 0 mm 4 mps 745 mmHg 60%
16:00 +14°C° 0 mm 4 mps 745 mmHg 62%
17:00 +14°C° 0 mm 5 mps 745 mmHg 65%
18:00 +13°C° 0 mm 5 mps 745 mmHg 70%
19:00 +10°C° 0 mm 5 mps 745 mmHg 76%
20:00 +9°C° 0 mm 5 mps 745 mmHg 81%
21:00 +8°C° 0 mm 5 mps 744 mmHg 83%
22:00 +7°C° 0 mm 5 mps 744 mmHg 86%
23:00 +7°C° 0 mm 5 mps 744 mmHg 88%

14 April, Wednesday

Time Temperature Precipitation Wind Pressure Humidity
00:00 +6°C° 0 mm 4 mps 744 mmHg 89%
01:00 +6°C° 0 mm 4 mps 743 mmHg 90%
02:00 +5°C° 0 mm 4 mps 743 mmHg 91%
03:00 +5°C° 0.1 mm 4 mps 743 mmHg 90%
04:00 +5°C° 0.1 mm 4 mps 743 mmHg 89%
05:00 +5°C° 0.1 mm 4 mps 743 mmHg 88%
06:00 +4°C° 0.3 mm 4 mps 743 mmHg 88%
07:00 +4°C° 0.3 mm 4 mps 743 mmHg 88%
08:00 +4°C° 0.3 mm 4 mps 743 mmHg 87%
09:00 +4°C° 0.4 mm 4 mps 743 mmHg 89%
10:00 +4°C° 0.4 mm 4 mps 742 mmHg 90%
11:00 +4°C° 0.4 mm 4 mps 742 mmHg 91%
12:00 +4°C° 0.3 mm 4 mps 742 mmHg 91%
13:00 +4°C° 0.3 mm 4 mps 742 mmHg 91%
14:00 +4°C° 0.3 mm 4 mps 742 mmHg 91%
15:00 +4°C° 0.3 mm 4 mps 742 mmHg 92%
16:00 +3°C° 0.3 mm 4 mps 742 mmHg 92%
17:00 +3°C° 0.3 mm 3 mps 742 mmHg 93%
18:00 +3°C° 0.3 mm 3 mps 742 mmHg 93%
19:00 +3°C° 0.3 mm 3 mps 742 mmHg 94%
20:00 +3°C° 0.3 mm 3 mps 743 mmHg 94%
21:00 +3°C° 0.2 mm 2 mps 743 mmHg 95%
22:00 +3°C° 0.2 mm 2 mps 742 mmHg 95%
23:00 +3°C° 0.2 mm 2 mps 742 mmHg 95%

15 April, Thursday

Time Temperature Precipitation Wind Pressure Humidity
00:00 +3°C° 0.1 mm 2 mps 742 mmHg 95%
01:00 +3°C° 0.1 mm 2 mps 742 mmHg 95%
02:00 +3°C° 0.1 mm 2 mps 742 mmHg 95%
03:00 +5°C° 0 mm 1 mps 742 mmHg 95%
04:00 +5°C° 0 mm 1 mps 743 mmHg 95%
05:00 +5°C° 0 mm 1 mps 743 mmHg 95%
06:00 +5°C° 0 mm 1 mps 743 mmHg 94%
07:00 +6°C° 0 mm 1 mps 743 mmHg 94%
08:00 +6°C° 0 mm 1 mps 743 mmHg 93%
09:00 +7°C° 0 mm 1 mps 743 mmHg 91%
10:00 +8°C° 0 mm 1 mps 743 mmHg 88%
11:00 +9°C° 0 mm 1 mps 744 mmHg 85%
12:00 +9°C° 0.1 mm 2 mps 744 mmHg 79%
13:00 +12°C° 0.1 mm 2 mps 744 mmHg 72%
14:00 +13°C° 0.1 mm 2 mps 744 mmHg 66%
15:00 +13°C° 0.2 mm 2 mps 743 mmHg 67%
16:00 +12°C° 0.2 mm 2 mps 743 mmHg 69%
17:00 +11°C° 0.2 mm 3 mps 743 mmHg 70%
18:00 +10°C° 0.2 mm 3 mps 743 mmHg 76%
19:00 +8°C° 0.2 mm 4 mps 744 mmHg 83%
20:00 +7°C° 0.2 mm 4 mps 744 mmHg 89%
21:00 +6°C° 0.1 mm 4 mps 744 mmHg 90%
22:00 +6°C° 0.1 mm 4 mps 744 mmHg 91%
23:00 +5°C° 0.1 mm 5 mps 744 mmHg 91%

16 April, Friday

Time Temperature Precipitation Wind Pressure Humidity
00:00 +5°C° 0 mm 4 mps 744 mmHg 92%
01:00 +4°C° 0 mm 4 mps 744 mmHg 92%
02:00 +4°C° 0 mm 4 mps 744 mmHg 92%
03:00 +3°C° 0 mm 4 mps 744 mmHg 92%
04:00 +3°C° 0 mm 4 mps 744 mmHg 93%
05:00 +3°C° 0 mm 4 mps 745 mmHg 93%
06:00 +3°C° 0 mm 4 mps 745 mmHg 92%
07:00 +4°C° 0 mm 4 mps 745 mmHg 90%
08:00 +4°C° 0 mm 4 mps 745 mmHg 89%
09:00 +6°C° 0 mm 5 mps 745 mmHg 83%
10:00 +7°C° 0 mm 5 mps 745 mmHg 78%
11:00 +9°C° 0 mm 5 mps 746 mmHg 72%
12:00 +9°C° 0 mm 5 mps 746 mmHg 73%
13:00 +9°C° 0 mm 6 mps 746 mmHg 74%
14:00 +10°C° 0 mm 6 mps 746 mmHg 75%
15:00 +9°C° 0.1 mm 6 mps 746 mmHg 80%
16:00 +8°C° 0.1 mm 5 mps 746 mmHg 84%
17:00 +7°C° 0.1 mm 5 mps 747 mmHg 89%
18:00 +7°C° 0 mm 5 mps 747 mmHg 89%
19:00 +7°C° 0 mm 5 mps 747 mmHg 89%
20:00 +7°C° 0 mm 5 mps 747 mmHg 89%
21:00 +7°C° 0.1 mm 5 mps 748 mmHg 90%
22:00 +7°C° 0.1 mm 5 mps 748 mmHg 91%
23:00 +7°C° 0.1 mm 5 mps 748 mmHg 92%
Show more

We Need Your Consent

Meteoprog and our Service Providers may store and access personal data such as cookies, device identifiers or other similar technologies on your device and process such data to personalise content and ads, as well as provide social media features and to analyse the traffic.

  • Store and/or access information on your device

    Cookies, device identifiers or other information can be stored or accessed on your device for the purposes indicated above.

  • Personalised ads and content, ad and content measurement, audience insights, and products development

    Ads and content can be personalised based on a profile. More data can be added to better personalise ads and content. Ad and content performance can be measured. Insights about the audience who saw the ads and content can be derived. Such data can be used to develop or improve user’s experience, systems and software.

By clicking ‘I Agree’ you will allow the use of indicated cookies, device identifiers, web beacons or other similar technologies. Your settings can be changed in the browser on your device.

For certain purposes, legitimate interests may be relied on, rather than consent. You can read more about this in our Privacy and Cookie Policy.